IU3UJX-13 Weather Reports


Display with metric or nautical units.
time (UTC)temp
F
wind
direction
speed
MPH
gust
MPH
rain 1hr
in
rain 24hr
in
rain mn
in
humidity
%
barometer
mb
20260506174503 60 76 6.0 0.0 0.00 0.00 0.00 95 101.2
20260506173502 60 74 7.0 0.0 0.00 0.00 0.00 95 101.2
20260506172502 60 72 7.0 0.0 0.00 0.00 0.00 95 101.2
20260506172249 60 72 7.0 0.0 0.00 0.00 0.00
20260506171248 61 70 7.0 0.0 0.00 0.00 0.00
20260506170248 63 78 5.0 0.0 0.00 0.00 0.00
20260506165654 17 70 5.0 0.0 0.00 0.00 0.00
20260506164653 17 70 5.0 0.0 0.00 0.00 0.00
20260506163653 17 63 5.0 0.0 0.00 0.00 0.00
20260506163250 17 10 63.0 0.0 0.00 0.00 0.00
20260506154526 16 12 59.0 0.0 0.00 0.00 0.00
20260506153526 16 14 67.0 0.0 0.00 0.00 0.00
20260506152525 16 17 73.0 0.0 0.00 0.00 0.00
20260506151524 16 17 73.0 0.0 0.00 0.00 0.00
20260506150524 16 18 77.0 0.0 0.00 0.00 0.00
20260506145523 16 18 78.0 0.0 0.00 0.00 0.00
20260506145028 16 18 78.0 0.0 0.00 0.00 0.00 100
20260506144028 17 18 78.0 0.0 0.00 0.00 0.00 100
20260506143027 17 18 78.0 0.0 0.00 0.00 0.00 100
20260506142025 18 17 77.0 0.0 0.00 0.00 0.00 100
20260506141024 18 17 79.0 0.0 0.00 0.00 0.00 100
20260506140023 18 17 79.0 0.0 0.00 0.00 0.00 100
20260506135018 18 17 84.0 0.0 0.00 0.00 0.00 100
20260506133907 19 18 90.0 0.0 0.00 0.00 0.00 100
20260506133220 19 18 90.0 0.0 0.00 0.00 0.00 100